Location: Falconara Alta
(43.6167°N, 13.4000°E)
Time: 12:05:01
(UTC+00:00)

Cosmos 2082 Rocket - Pass Details

Date: 09 April 2020
Orbit: 832 x 855 km, 71.0° (Epoch: 05 June)

Event Time Altitude Azimuth Distance (km) Brightness Sun altitude
Exits shadow 20:33:10 19° 50° (NE) 1,881 3.9 -27.6°
Drops below altitude 10° 20:34:56 10° 40° (NE) 2,464 4.7 -27.9°
Sets 20:37:32 0° 32° (NNE) 3,407 5.5 -28.2°
